When you browse on this site, cookies collect data to enhance your experience and personalize the content and advertising you see.
Visit our Privacy Policy to learn more. By continuing to use the site, you agree to this use of cookies and data.
  • In Spain
  • List of Countries
  • For 7 days
  • Water Temperature
  • Satellite Maps
  • Weather Map
  • Weather Widgets
  • user-avatar
    Login

    Hourly Weather Dimitrovgrad

    Today, 22 April, Monday

    Time Temperature Precipitation Wind Pressure Humidity
    00:00 +5°C° 0 mm 2 mps 694 mmHg 64%
    01:00 +5°C° 0 mm 2 mps 694 mmHg 65%
    02:00 +5°C° 0 mm 2 mps 693 mmHg 67%
    03:00 +5°C° 0 mm 2 mps 693 mmHg 69%
    04:00 +4°C° 0 mm 2 mps 693 mmHg 71%
    05:00 +6°C° 0 mm 2 mps 693 mmHg 67%
    06:00 +8°C° 0 mm 2 mps 694 mmHg 63%
    07:00 +10°C° 0 mm 2 mps 694 mmHg 58%
    08:00 +13°C° 0 mm 2 mps 694 mmHg 52%
    09:00 +15°C° 0 mm 2 mps 694 mmHg 45%
    10:00 +17°C° 0 mm 2 mps 695 mmHg 39%
    11:00 +19°C° 0 mm 1 mps 694 mmHg 37%
    12:00 +19°C° 0 mm 1 mps 694 mmHg 36%
    13:00 +20°C° 0 mm 1 mps 694 mmHg 34%
    14:00 +20°C° 0 mm 1 mps 694 mmHg 36%
    15:00 +19°C° 0 mm 1 mps 693 mmHg 37%
    16:00 +19°C° 0 mm 1 mps 693 mmHg 38%
    17:00 +16°C° 0 mm 1 mps 692 mmHg 47%
    18:00 +13°C° 0 mm 1 mps 692 mmHg 56%
    19:00 +10°C° 0 mm 2 mps 692 mmHg 65%
    20:00 +10°C° 0 mm 2 mps 692 mmHg 67%
    21:00 +9°C° 0 mm 2 mps 693 mmHg 69%
    22:00 +9°C° 0 mm 3 mps 693 mmHg 71%
    23:00 +9°C° 0.5 mm 3 mps 693 mmHg 76%

    Tomorrow, 23 April, Tuesday

    Time Temperature Precipitation Wind Pressure Humidity
    00:00 +8°C° 0.5 mm 3 mps 693 mmHg 81%
    01:00 +8°C° 0.5 mm 3 mps 694 mmHg 85%
    02:00 +7°C° 1.4 mm 3 mps 694 mmHg 87%
    03:00 +7°C° 1.4 mm 3 mps 693 mmHg 89%
    04:00 +5°C° 1.4 mm 3 mps 693 mmHg 91%
    05:00 +7°C° 0.3 mm 3 mps 694 mmHg 89%
    06:00 +7°C° 0.3 mm 3 mps 694 mmHg 87%
    07:00 +8°C° 0.3 mm 3 mps 694 mmHg 84%
    08:00 +9°C° 0.3 mm 3 mps 694 mmHg 80%
    09:00 +10°C° 0.3 mm 4 mps 695 mmHg 76%
    10:00 +11°C° 0.3 mm 4 mps 695 mmHg 72%
    11:00 +12°C° 0.1 mm 4 mps 695 mmHg 68%
    12:00 +13°C° 0.1 mm 4 mps 695 mmHg 64%
    13:00 +14°C° 0.1 mm 4 mps 694 mmHg 60%
    14:00 +14°C° 0 mm 4 mps 694 mmHg 61%
    15:00 +14°C° 0 mm 3 mps 694 mmHg 61%
    16:00 +14°C° 0 mm 3 mps 694 mmHg 62%
    17:00 +13°C° 0 mm 3 mps 694 mmHg 66%
    18:00 +13°C° 0 mm 2 mps 694 mmHg 70%
    19:00 +12°C° 0 mm 2 mps 694 mmHg 74%
    20:00 +10°C° 0 mm 2 mps 694 mmHg 76%
    21:00 +9°C° 0 mm 2 mps 694 mmHg 78%
    22:00 +8°C° 0 mm 2 mps 695 mmHg 81%
    23:00 +8°C° 0 mm 2 mps 695 mmHg 82%

    Day after tomorrow, 24 April, Wednesday

    Time Temperature Precipitation Wind Pressure Humidity
    00:00 +7°C° 0 mm 2 mps 695 mmHg 82%
    01:00 +7°C° 0 mm 2 mps 695 mmHg 83%
    02:00 +6°C° 0 mm 2 mps 695 mmHg 85%
    03:00 +6°C° 0 mm 2 mps 695 mmHg 86%
    04:00 +6°C° 0 mm 2 mps 695 mmHg 87%
    05:00 +7°C° 0 mm 2 mps 696 mmHg 82%
    06:00 +9°C° 0 mm 2 mps 696 mmHg 77%
    07:00 +12°C° 0 mm 2 mps 697 mmHg 71%
    08:00 +14°C° 0 mm 1 mps 697 mmHg 64%
    09:00 +18°C° 0 mm 1 mps 698 mmHg 57%
    10:00 +20°C° 0 mm 1 mps 698 mmHg 50%
    11:00 +21°C° 0 mm 1 mps 698 mmHg 47%
    12:00 +22°C° 0 mm 1 mps 698 mmHg 45%
    13:00 +23°C° 0 mm 1 mps 698 mmHg 43%
    14:00 +22°C° 0 mm 1 mps 697 mmHg 47%
    15:00 +21°C° 0 mm 1 mps 697 mmHg 51%
    16:00 +20°C° 0 mm 1 mps 697 mmHg 55%
    17:00 +18°C° 0 mm 1 mps 697 mmHg 65%
    18:00 +15°C° 0 mm 1 mps 696 mmHg 75%
    19:00 +13°C° 0 mm 1 mps 696 mmHg 85%
    20:00 +12°C° 0 mm 1 mps 696 mmHg 88%
    21:00 +11°C° 0 mm 1 mps 697 mmHg 91%
    22:00 +11°C° 0 mm 1 mps 697 mmHg 93%
    23:00 +11°C° 0 mm 1 mps 697 mmHg 94%

    25 April, Thursday

    Time Temperature Precipitation Wind Pressure Humidity
    00:00 +10°C° 0 mm 1 mps 697 mmHg 94%
    01:00 +10°C° 0 mm 1 mps 697 mmHg 94%
    02:00 +10°C° 0 mm 1 mps 697 mmHg 94%
    03:00 +10°C° 0 mm 1 mps 697 mmHg 94%
    04:00 +9°C° 0 mm 1 mps 697 mmHg 94%
    05:00 +11°C° 0 mm 1 mps 697 mmHg 88%
    06:00 +12°C° 0 mm 1 mps 698 mmHg 81%
    07:00 +14°C° 0 mm 1 mps 698 mmHg 75%
    08:00 +16°C° 0 mm 1 mps 698 mmHg 67%
    09:00 +19°C° 0 mm 1 mps 699 mmHg 60%
    10:00 +21°C° 0 mm 1 mps 699 mmHg 52%
    11:00 +22°C° 0 mm 1 mps 699 mmHg 51%
    12:00 +22°C° 0 mm 1 mps 698 mmHg 50%
    13:00 +22°C° 0 mm 1 mps 698 mmHg 49%
    14:00 +22°C° 0.1 mm 1 mps 698 mmHg 50%
    15:00 +22°C° 0.1 mm 1 mps 697 mmHg 51%
    16:00 +22°C° 0.1 mm 1 mps 697 mmHg 52%
    17:00 +20°C° 0 mm 1 mps 697 mmHg 62%
    18:00 +16°C° 0 mm 1 mps 696 mmHg 73%
    19:00 +14°C° 0 mm 1 mps 696 mmHg 83%
    20:00 +13°C° 0.1 mm 1 mps 696 mmHg 86%
    21:00 +13°C° 0.1 mm 1 mps 696 mmHg 89%
    22:00 +12°C° 0.1 mm 1 mps 696 mmHg 92%
    23:00 +12°C° 0.1 mm 1 mps 696 mmHg 92%

    26 April, Friday

    Time Temperature Precipitation Wind Pressure Humidity
    00:00 +10°C° 0.1 mm 2 mps 696 mmHg 92%
    01:00 +10°C° 0.1 mm 2 mps 696 mmHg 92%
    02:00 +10°C° 0.1 mm 2 mps 695 mmHg 92%
    03:00 +11°C° 0.1 mm 1 mps 695 mmHg 91%
    04:00 +10°C° 0.1 mm 1 mps 695 mmHg 91%
    05:00 +12°C° 0 mm 1 mps 696 mmHg 85%
    06:00 +14°C° 0 mm 1 mps 696 mmHg 79%
    07:00 +15°C° 0 mm 1 mps 696 mmHg 73%
    08:00 +19°C° 0 mm 1 mps 697 mmHg 65%
    09:00 +21°C° 0 mm 1 mps 697 mmHg 57%
    10:00 +23°C° 0 mm 1 mps 697 mmHg 49%
    11:00 +24°C° 0.1 mm 1 mps 697 mmHg 47%
    12:00 +25°C° 0.1 mm 1 mps 697 mmHg 45%
    13:00 +25°C° 0.1 mm 1 mps 696 mmHg 43%
    14:00 +25°C° 0.1 mm 1 mps 696 mmHg 45%
    15:00 +24°C° 0.1 mm 1 mps 695 mmHg 47%
    16:00 +23°C° 0.1 mm 1 mps 695 mmHg 49%
    17:00 +21°C° 0.1 mm 1 mps 694 mmHg 58%
    18:00 +18°C° 0.1 mm 1 mps 694 mmHg 68%
    19:00 +15°C° 0.1 mm 2 mps 694 mmHg 77%
    20:00 +14°C° 0.1 mm 2 mps 694 mmHg 81%
    21:00 +14°C° 0.1 mm 2 mps 693 mmHg 84%
    22:00 +13°C° 0.1 mm 2 mps 693 mmHg 88%
    23:00 +13°C° 0.1 mm 2 mps 693 mmHg 88%

    27 April, Saturday

    Time Temperature Precipitation Wind Pressure Humidity
    00:00 +12°C° 0.1 mm 2 mps 693 mmHg 88%
    01:00 +12°C° 0.1 mm 2 mps 693 mmHg 89%
    02:00 +12°C° 0.2 mm 2 mps 692 mmHg 89%
    03:00 +10°C° 0.2 mm 2 mps 692 mmHg 90%
    04:00 +10°C° 0.2 mm 2 mps 692 mmHg 90%
    05:00 +13°C° 0.1 mm 2 mps 692 mmHg 85%
    06:00 +14°C° 0.1 mm 2 mps 693 mmHg 80%
    07:00 +16°C° 0.1 mm 1 mps 693 mmHg 76%
    08:00 +19°C° 0 mm 1 mps 693 mmHg 67%
    09:00 +21°C° 0 mm 1 mps 693 mmHg 58%
    10:00 +24°C° 0 mm 1 mps 693 mmHg 50%
    11:00 +23°C° 1 mm 1 mps 693 mmHg 50%
    12:00 +23°C° 1 mm 1 mps 692 mmHg 51%
    13:00 +23°C° 1 mm 1 mps 692 mmHg 51%
    14:00 +23°C° 0.9 mm 1 mps 691 mmHg 54%
    15:00 +22°C° 0.9 mm 1 mps 691 mmHg 56%
    16:00 +20°C° 0.9 mm 2 mps 691 mmHg 59%
    17:00 +19°C° 2 mm 1 mps 691 mmHg 67%
    18:00 +16°C° 2 mm 1 mps 690 mmHg 76%
    19:00 +15°C° 2 mm 1 mps 690 mmHg 84%
    20:00 +14°C° 1.5 mm 1 mps 691 mmHg 85%
    21:00 +14°C° 1.5 mm 1 mps 691 mmHg 85%
    22:00 +14°C° 1.5 mm 1 mps 691 mmHg 86%
    23:00 +13°C° 0.5 mm 1 mps 691 mmHg 89%
    Show more